User: anonymous   Login
Location: Burland Observatory
(39.4088°N, 105.4217°W)
Time: 20:59:18
(UTC-07:00)
Language:

Transit 2A Rocket - Orbit

View from above orbital plane
View from above orbital plane
View from above satellite
View from above satellite

Ground track
Ground track

The orbit data is extracted from the following two-line orbital elements,

1    47U 60007C   19347.30626445 -.00000027  00000-0  19065-4 0  9993
2    47  66.6664 295.4048 0220402  79.8625 282.7260 14.42062640108146
Epoch (UTC): 13 December 2019 07:21:01
Eccentricity: 0.0220402
inclination: 66.6664°
perigee height: 594 km
apogee height: 909 km
right ascension of ascending node: 295.4048°
argument of perigee: 79.8625°
revolutions per day: 14.42062640
mean anomaly at epoch: 282.7260°
orbit number at epoch: 10814

The dashed part of the orbit path shows where the satellite is in the earth's shadow,  

DLR